BEIDOU-3 G1

Last updated on Mon Jul 07 2025 00:02:46 GMT+0000 (Coordinated Universal Time)

1 43683U 18085A 25187.59192148 -.00000264 00000+0 00000+0 0 9999 2 43683 2.7148 107.7646 0004502 356.5639 173.5263 1.00267433 24590
UTC large
Height (km)
Speed (km/s)
/
Latitude / Longitude
Inclination (degrees)
Orbital Period (minutes)
Azimuth
Elevation
Range (km)
Doppler Factor

Next 0 passes for location: London (51.5072 / 0.1276)

Sorry there are no passes over London.